Theta_e
294 293 293 292 291 291 291 290 290 290 290 289 289 289 289 288 288 288 288 288 288 288 289 289 289 290 290 290 291 292 292 293
291 292 292 291 290 289 288 288 288 289 288 287 286 286 286 286 286 285 286 286 286 286 286 287 287 287 287 288 288 288 289 290
290 290 289 288 288 287 286 286 286 287 286 285 285 284 284 284 284 284 284 285 284 285 285 285 285 286 286 286 287 286 286 287
287 287 287 286 285 285 285 284 285 285 284 283 283 282 282 282 283 283 282 283 283 283 283 283 284 284 285 285 285 285 286 286
286 285 285 284 283 283 283 283 283 283 282 281 281 281 281 281 281 281 281 281 281 281 282 282 282 283 284 284 284 284 284 285
284 283 283 282 282 282 282 282 282 281 280 279 280 280 280 280 280 280 279 279 280 280 280 280 281 282 283 284 283 283 282 283
284 282 281 281 280 280 280 280 280 279 278 278 278 278 278 278 278 278 278 278 278 278 278 278 280 283 284 283 282 281 281 281
282 281 280 279 279 279 279 279 278 277 277 276 276 276 276 277 276 276 276 276 277 277 277 278 279 282 283 283 281 280 280 280
281 279 279 278 278 279 279 277 276 276 275 275 275 275 275 275 274 275 275 275 276 276 276 277 278 281 282 282 280 280 280 279
280 278 277 277 277 278 276 275 274 274 273 273 273 273 273 273 273 274 274 274 275 276 276 275 276 279 280 280 279 278 278 279
278 277 276 276 277 275 274 273 272 272 272 272 272 272 272 272 272 273 273 274 274 274 275 276 275 278 279 279 278 276 277 278
276 275 274 275 275 273 272 270 271 271 271 271 271 271 272 271 272 271 272 272 272 272 274 275 275 275 278 279 276 276 276 275
274 274 273 273 273 271 270 270 270 269 269 269 269 270 270 270 270 270 270 270 270 271 272 274 274 275 276 277 278 278 274 274
272 271 270 271 270 269 268 268 267 266 266 267 268 269 269 268 268 268 269 269 269 270 270 271 273 273 275 276 277 276 275 275
270 269 268 268 268 267 267 266 263 263 265 267 266 266 267 267 268 267 267 268 269 269 269 270 270 270 272 274 273 275 274 274
268 267 266 266 265 264 264 263 264 265 265 265 265 264 265 266 266 267 269 270 269 269 269 268 268 270 274 273 273 272 273 270
265 265 263 262 262 261 259 260 259 263 263 262 263 263 263 263 264 268 270 271 272 272 271 270 272 273 273 274 274 274 272 265
264 263 260 259 257 255 255 255 255 257 259 260 261 262 262 262 261 260 264 268 269 270 270 271 271 271 272 273 272 269 267 261
259 257 256 255 254 254 252 252 252 253 258 259 259 259 259 260 260 260 259 259 260 265 267 268 269 270 271 270 267 260 261 260
254 252 253 252 254 252 250 253 251 256 257 256 257 257 257 258 258 259 259 258 258 259 262 262 265 268 268 266 259 258 258 259
Wind_Speed
10 10 8 9 10 12 10 8 9 9 10 10 11 11 9 7 10 10 9 10 11 11 11 11 11 11 10 9 8 9 8 7
10 10 11 8 8 7 9 11 11 9 8 8 9 8 7 9 9 9 9 11 11 12 12 13 13 13 11 11 11 13 12 13
9 9 8 7 7 8 7 7 6 6 7 9 9 9 10 11 11 11 12 11 11 11 10 10 12 12 12 12 12 13 14 13
8 7 7 7 7 8 8 8 7 7 8 10 11 10 11 11 11 11 10 10 10 10 10 11 11 11 10 12 12 13 13 13
7 6 6 6 7 7 7 7 7 8 9 9 9 10 9 8 8 9 10 10 10 10 10 10 11 9 11 12 12 13 13 12
7 6 5 6 5 5 6 6 7 9 9 8 8 8 8 9 9 8 9 9 10 9 10 10 9 9 14 14 13 13 13 11
8 7 6 5 5 6 8 9 8 6 7 8 8 9 9 8 8 8 8 9 9 9 10 11 8 21 24 21 14 14 14 15
8 7 6 5 6 9 7 5 4 5 6 7 7 7 8 7 8 9 9 9 9 10 11 12 12 24 24 25 13 15 14 16
7 7 5 6 7 4 3 3 4 4 5 6 6 7 8 8 9 9 9 9 9 10 11 11 10 22 25 27 14 13 15 16
6 7 8 6 2 3 4 4 4 5 5 6 7 8 8 10 10 9 9 9 10 10 10 12 12 23 24 23 14 14 16 15
7 8 6 3 2 5 4 3 4 6 7 8 8 8 8 8 8 8 8 9 8 11 11 12 12 19 23 22 12 15 14 15
7 7 5 3 3 5 5 6 5 6 7 7 7 6 7 7 7 9 8 8 9 11 10 10 11 13 24 26 14 14 16 15
7 6 4 3 3 5 5 4 5 6 4 5 5 5 6 7 7 8 9 9 9 9 9 8 10 16 20 26 26 28 18 18
6 6 4 3 3 4 3 4 5 4 4 3 5 6 6 7 8 6 7 7 8 8 9 10 9 9 23 24 29 28 19 14
6 6 4 3 5 4 3 3 1 2 4 4 5 7 5 4 5 5 6 7 8 9 10 10 11 11 11 12 14 18 16 20
5 5 4 3 4 2 1 3 4 3 3 5 5 6 6 6 5 6 5 8 8 8 9 11 11 11 24 23 15 16 19 21
5 5 4 3 3 1 3 4 3 3 4 3 3 4 5 6 7 8 11 16 17 19 16 9 19 28 30 31 31 30 30 11
6 4 4 4 3 2 3 3 3 1 3 3 4 4 5 5 5 9 13 18 17 19 22 22 24 27 29 30 32 25 21 8
5 5 5 4 2 2 1 1 1 2 3 2 2 3 4 4 5 5 6 9 10 16 20 21 24 25 25 28 22 13 10 9
5 4 4 4 4 3 3 3 2 2 2 2 3 3 4 5 5 5 7 7 9 9 11 11 22 22 21 22 7 10 11 10
Wind_Direction
111 109 90 72 61 41 51 59 48 34 33 31 30 30 26 27 25 15 7 2 3 2 359 355 353 353 353 353 342 328 326 322
94 90 74 66 59 54 46 44 39 33 33 36 34 26 28 29 19 11 5 3 2 357 356 354 349 349 349 347 345 342 337 339
103 100 92 81 66 59 56 60 48 42 41 37 31 22 27 19 11 5 2 358 355 353 351 346 342 338 339 340 337 335 334 327
92 84 84 85 75 65 52 46 40 39 40 33 23 18 16 10 2 356 351 349 346 346 345 338 335 332 338 335 332 330 325 330
107 104 97 81 74 64 54 44 37 37 37 29 13 9 3 357 355 351 347 345 342 341 331 336 334 338 340 338 338 339 334 328
127 113 94 83 77 78 67 54 38 40 36 20 0 356 358 0 357 348 346 336 335 336 340 339 340 352 349 349 345 336 333 332
119 110 100 96 84 68 47 36 28 25 20 13 7 1 358 352 349 351 341 341 342 348 343 352 352 351 354 354 340 339 334 332
118 115 104 75 55 50 41 28 34 29 23 9 3 356 354 350 352 351 351 342 348 349 357 354 348 352 351 349 343 336 332 326
126 117 96 62 53 70 70 57 58 45 24 13 359 358 353 355 358 344 350 351 351 354 354 342 335 349 352 347 338 329 325 322
122 119 88 78 74 118 93 69 50 28 13 12 7 357 354 359 349 347 344 356 356 351 339 341 342 348 345 344 335 328 321 319
113 103 104 92 143 133 115 88 39 12 8 12 6 358 350 339 331 339 357 355 336 344 350 340 334 338 340 344 334 324 323 322
106 115 120 133 140 110 83 52 6 2 8 5 357 327 334 329 350 353 345 347 352 346 333 330 338 333 338 339 335 326 326 320
129 131 120 86 105 103 80 24 12 7 358 345 329 335 345 343 349 356 359 351 344 334 331 334 328 330 333 337 333 334 325 318
136 127 96 75 67 103 53 18 12 352 321 325 338 353 345 353 353 347 356 350 337 335 329 323 327 327 330 324 334 328 321 321
136 143 139 93 80 85 44 1 301 338 354 347 346 344 349 341 351 348 343 338 332 329 323 325 327 329 319 331 324 321 328 325
146 133 121 122 102 58 30 24 19 0 3 1 350 338 340 355 339 335 328 323 326 320 323 324 324 319 331 333 329 334 333 332
127 140 158 133 150 115 38 45 30 20 6 347 329 343 342 332 325 328 322 332 330 330 330 325 320 329 332 330 338 340 336 339
165 155 153 161 150 5 20 39 56 3 318 336 346 340 338 338 326 319 326 331 334 334 332 328 328 332 328 334 335 343 340 326
156 165 153 127 162 231 201 118 268 278 283 286 311 326 313 298 297 299 305 314 316 322 321 324 328 325 328 337 341 331 338 321
153 160 146 154 229 193 183 188 217 246 269 298 305 288 279 293 301 301 303 301 297 304 306 311 317 318 335 334 320 315 317 319